EW9965 Weather Reports


time (UTC)temp
C
wind
direction
speed
KPH
gust
KPH
rain 1hr
cm
rain 24hr
cm
rain mn
cm
humidity
%
barometer
mb
20260906191511 29 245 0.0 1.6 0.00 0.00 0.00 57 1012.3
20260906190009 29 124 0.0 3.2 0.00 0.00 0.00 56 1012.5
20260906184520 28 144 0.0 6.4 0.00 0.00 0.00 57 1012.5
20260906183005 28 149 0.0 6.4 0.00 0.00 0.00 58 1012.6
20260906181504 28 160 0.0 6.4 0.00 0.00 0.00 59 1012.8
20260906180003 28 210 0.0 6.4 0.00 0.00 0.00 58 1012.8
20260906174606 28 164 0.0 4.8 0.00 0.00 0.00 58 1012.6
20260906173116 28 211 0.0 6.4 0.00 0.00 0.00 58 1012.4
20260906171557 28 159 0.0 3.2 0.00 0.00 0.00 59 1012.4
20260906170053 27 159 0.0 3.2 0.00 0.00 0.00 61 1012.4
20260906164550 26 250 0.0 1.6 0.00 0.00 0.00 63 1012.3
20260906163046 26 215 0.0 0.0 0.00 0.00 0.00 65 1012.2
20260906161543 26 215 0.0 0.0 0.00 0.00 0.00 65 1012.3
20260906160042 25 265 0.0 1.6 0.00 0.00 0.00 66 1012.2
20260906154538 25 265 0.0 0.0 0.00 0.00 0.00 67 1012.2
20260906153040 25 265 0.0 0.0 0.00 0.00 0.00 66 1012.2
20260906151534 24 265 0.0 0.0 0.00 0.00 0.00 66 1012.4
20260906150034 24 265 0.0 1.6 0.00 0.00 0.00 66 1012.4
20260906144528 24 265 0.0 0.0 0.00 0.00 0.00 65 1012.1
20260906143025 23 131 0.0 0.0 0.00 0.00 0.00 63 1012.1
20260906141524 23 131 0.0 0.0 0.00 0.00 0.00 63 1011.9
20260906140039 23 131 0.0 0.0 0.00 0.00 0.00 63 1011.6
20260906134520 23 228 0.0 0.0 0.00 0.00 0.00 61 1011.4
20260906133020 23 228 0.0 0.0 0.00 0.00 0.00 60 1011.1
20260906131522 23 228 0.0 0.0 0.00 0.00 0.00 60 1011.1
20260906130018 23 153 0.0 0.0 0.00 0.00 0.00 60 1011.0
20260906124518 23 205 0.0 0.0 0.00 0.00 0.00 61 1010.9
20260906123018 24 97 0.0 0.0 0.00 0.00 0.00 61 1010.9
20260906121517 23 97 0.0 0.0 0.00 0.00 0.00 60 1010.9
20260906120020 23 97 0.0 3.2 0.00 0.00 0.00 60 1011.1
20260906114522 23 340 0.0 0.0 0.00 0.00 0.00 59 1011.2
20260906113013 23 340 0.0 0.0 0.00 0.00 0.00 60 1011.2
20260906111511 23 340 0.0 6.4 0.00 0.00 0.00 60 1011.3
20260906110010 24 4 0.0 8.0 0.00 0.00 0.00 59 1011.4
20260906104506 25 63 0.0 0.0 0.00 0.00 0.00 56 1011.4
20260906103008 25 79 0.0 0.0 0.00 0.00 0.00 54 1011.5
20260906101503 25 79 0.0 1.6 0.00 0.00 0.00 50 1011.5
20260906100100 25 70 0.0 0.0 0.00 0.00 0.00 47 1011.5
20260906094608 25 70 0.0 0.0 0.00 0.00 0.00 46 1011.4
20260906093107 25 71 0.0 0.0 0.00 0.00 0.00 46 1011.5
20260906091556 25 86 0.0 0.0 0.00 0.00 0.00 44 1011.6
20260906090154 25 86 0.0 0.0 0.00 0.00 0.00 44 1011.7
20260906084559 25 86 0.0 0.0 0.00 0.00 0.00 42 1011.8
20260906083052 25 86 0.0 0.0 0.00 0.00 0.00 41 1011.9
20260906081550 25 86 0.0 0.0 0.00 0.00 0.00 41 1011.9
20260906080057 25 86 0.0 0.0 0.00 0.00 0.00 42 1011.9
20260906074552 26 70 0.0 0.0 0.00 0.00 0.00 43 1012.1
20260906073044 26 70 0.0 0.0 0.00 0.00 0.00 43 1012.1
20260906071540 26 82 0.0 0.0 0.00 0.00 0.00 42 1012.0
20260906070036 26 100 0.0 0.0 0.00 0.00 0.00 41 1012.1
20260906064536 26 139 0.0 0.0 0.00 0.00 0.00 42 1012.2
20260906063033 26 139 0.0 0.0 0.00 0.00 0.00 42 1012.0
20260906061540 26 139 0.0 3.2 0.00 0.00 0.00 41 1011.9
20260906060028 26 97 0.0 0.0 0.00 0.00 0.00 40 1011.8
20260906054527 26 97 0.0 0.0 0.00 0.00 0.00 40 1012.1
20260906053024 26 101 0.0 1.6 0.00 0.00 0.00 40 1012.2
20260906051525 26 72 0.0 0.0 0.00 0.00 0.00 39 1012.2
20260906050022 26 72 0.0 1.6 0.00 0.00 0.00 39 1012.3
20260906044521 26 193 0.0 0.0 0.00 0.00 0.00 37 1012.3
20260906043021 27 193 0.0 0.0 0.00 0.00 0.00 37 1012.4
20260906041533 27 193 0.0 1.6 0.00 0.00 0.00 35 1012.3
20260906040022 27 193 0.0 3.2 0.00 0.00 0.00 33 1012.2
20260906034520 27 184 0.0 3.2 0.00 0.00 0.00 33 1012.2
20260906033019 28 208 0.0 0.0 0.00 0.00 0.00 34 1012.1
20260906031521 28 195 0.0 3.2 0.00 0.00 0.00 34 1011.9
20260906030016 28 179 0.0 9.7 0.00 0.00 0.00 34 1011.8
20260906024516 29 195 0.0 8.0 0.00 0.00 0.00 36 1011.8
20260906023015 30 201 0.0 8.0 0.00 0.00 0.00 36 1011.5
20260906021515 30 182 3.2 8.0 0.00 0.00 0.00 34 1011.5
20260906020013 31 239 0.0 8.0 0.00 0.00 0.00 32 1011.5
20260906014528 31 178 0.0 9.7 0.00 0.00 0.00 31 1011.4
20260906013014 31 167 1.6 11.3 0.00 0.00 0.00 31 1011.4
20260906011510 32 248 1.6 9.7 0.00 0.00 0.00 32 1011.4
20260906010027 32 232 3.2 14.5 0.00 0.00 0.00 32 1011.4
20260906004507 33 181 1.6 12.9 0.00 0.00 0.00 34 1011.3
20260906003007 33 169 3.2 12.9 0.00 0.00 0.00 30 1011.2
20260906001506 35 213 3.2 12.9 0.00 0.00 0.00 32 1011.1
20260906000004 35 231 3.2 9.7 0.00 0.00 0.00 32 1011.0
20260905234503 35 190 4.8 16.1 0.00 0.00 0.00 30 1011.0
20260905233002 36 211 6.4 14.5 0.00 0.00 0.00 30 1011.1
20260905231502 36 193 3.2 14.5 0.00 0.00 0.00 30 1011.0
20260905230113 35 247 3.2 12.9 0.00 0.00 0.00 31 1011.0
20260905224556 36 204 3.2 16.1 0.00 0.00 0.00 30 1011.1
20260905223054 36 198 4.8 19.3 0.00 0.00 0.00 29 1011.1
20260905221554 36 174 6.4 16.1 0.00 0.00 0.00 29 1011.3
20260905220047 36 190 4.8 20.9 0.00 0.00 0.00 28 1011.3
20260905214541 36 156 8.0 14.5 0.00 0.00 0.00 26 1011.5
20260905213050 36 185 3.2 12.9 0.00 0.00 0.00 25 1011.6
20260905211543 35 226 6.4 17.7 0.00 0.00 0.00 26 1011.7
20260905210031 35 166 6.4 14.5 0.00 0.00 0.00 25 1012.0
20260905204532 35 285 1.6 12.9 0.00 0.00 0.00 23 1012.2
20260905203039 35 188 4.8 11.3 0.00 0.00 0.00 20 1012.3
20260905201548 35 139 4.8 12.9 0.00 0.00 0.00 21 1012.5
20260905200025 35 209 4.8 11.3 0.00 0.00 0.00 17 1012.6
20260905194524 34 258 1.6 11.3 0.00 0.00 0.00 16 1012.8
20260905193024 35 121 8.0 12.9 0.00 0.00 0.00 15 1012.9